Pueblo, CO

11:54 AM MDT on September 28, 2016 (GMT -0600)
Pueblo Memorial

Weather History for KPUB - June, 2013

Change the Weather History Date:

Thursday, June 6, 2013

  Actual Average Record
Temperature  
Mean Temperature 63 °F 67 °F  
Max Temperature 82 °F 84 °F 98 °F (1969)
Min Temperature 44 °F 50 °F 37 °F (1915)
Degree Days  
Heating Degree Days 2 2  
Month to date heating degree days 17 12  
Since 1 June heating degree days 17 12  
Since 1 July heating degree days 5724 5625  
Cooling Degree Days 0 3  
Month to date cooling degree days 19 18  
Year to date cooling degree days 92 52  
Since 1 June cooling degree days 19 18  
Growing Degree Days 13 (Base 50)    
Moisture  
Dew Point 44 °F    
Average Humidity 58    
Maximum Humidity 92    
Minimum Humidity 23    
Precipitation  
Precipitation 0.00 in 0.05 in 0.88 in (1991)
Month to date precipitation 0.10 0.28  
Year to date precipitation 2.03 4.77  
Snow  
Snow 0.00 in 0.00 in 0.00 in (2002)
Month to date snowfall 0.0 0.0  
Since 1 June snowfall 0.0 0.0  
Since 1 July snowfall 24.4 31.8  
Snow Depth 0.00 in    
Sea Level Pressure  
Sea Level Pressure 29.99 in    
Wind  
Wind Speed 7 mph (SE)    
Max Wind Speed 16 mph    
Max Gust Speed 22 mph    
Visibility 10 miles    
Events      
T = Trace of Precipitation, MM = Missing Value Source: NWS Daily Summary

Daily Weather History Graph

Daily Weather History Graph

Search for Another Location

Airport or City:

Trip Planner

Search our weather history database for the weather conditions in past years. The results will help you decide how hot, cold, wet, or windy it might be!

Date:

Astronomy

Jun. 06, 2013 Rise Set
Actual Time 5:34 AM MDT 8:19 PM MDT
Civil Twilight 5:03 AM MDT 8:50 PM MDT
Nautical Twilight 4:24 AM MDT 9:29 PM MDT
Astronomical Twilight 3:39 AM MDT 10:14 PM MDT
Moon 4:16 AM MDT (6/6) 6:44 PM MDT (6/6)
Length of Visible Light 15h 47m
Length of Day
14h 44m
Waning Crescent, 3% of the Moon is Illuminated
Jun 6
Waning Crescent
Jun 8
New
Jun 16
First Quarter
Jun 23
Full
Jun 29
Last Quarter

Hourly Weather History & Observations

Time (MDT) Temp. Windchill Dew Point Humidity Pressure Visibility Wind Dir Wind Speed Gust Speed Precip Events Conditions
12:26 AM 53.6 °F - 48.2 °F 82% 30.19 in 10.0 mi South 4.6 mph - N/A   Overcast
12:53 AM 53.1 °F - 48.0 °F 83% 30.11 in 10.0 mi SW 3.5 mph - N/A   Overcast
1:15 AM 53.6 °F - 48.2 °F 82% 30.18 in 10.0 mi SSW 4.6 mph - N/A   Overcast
1:45 AM 53.6 °F - 48.2 °F 82% 30.17 in 10.0 mi Calm Calm - N/A   Mostly Cloudy
1:53 AM 53.1 °F - 48.0 °F 83% 30.08 in 10.0 mi Calm Calm - N/A   Mostly Cloudy
2:53 AM 52.0 °F - 46.9 °F 83% 30.06 in 10.0 mi Calm Calm - N/A   Partly Cloudy
3:53 AM 48.9 °F - 44.1 °F 83% 30.06 in 10.0 mi North 3.5 mph - N/A   Clear
4:53 AM 46.9 °F - 43.0 °F 86% 30.06 in 10.0 mi Calm Calm - N/A   Clear
5:53 AM 44.1 °F 42.5 °F 42.1 °F 93% 30.07 in 7.0 mi NNW 3.5 mph - N/A   Clear
6:53 AM 51.1 °F - 46.9 °F 86% 30.05 in 10.0 mi Calm Calm - N/A   Clear
7:53 AM 54.0 °F - 48.0 °F 80% 30.05 in 10.0 mi East 3.5 mph - N/A   Clear
8:53 AM 57.9 °F - 48.9 °F 72% 30.04 in 10.0 mi SE 5.8 mph - N/A   Clear
9:53 AM 62.1 °F - 48.0 °F 60% 30.02 in 10.0 mi SSE 5.8 mph - N/A   Clear
10:53 AM 66.9 °F - 46.9 °F 49% 29.99 in 10.0 mi South 8.1 mph - N/A   Clear
11:53 AM 71.1 °F - 46.9 °F 42% 29.97 in 10.0 mi SE 11.5 mph 17.3 mph N/A   Clear
12:53 PM 75.0 °F - 43.0 °F 32% 29.93 in 10.0 mi SSE 10.4 mph - N/A   Clear
1:53 PM 78.1 °F - 43.0 °F 29% 29.90 in 10.0 mi ESE 9.2 mph 17.3 mph N/A   Clear
2:53 PM 79.0 °F - 37.9 °F 23% 29.87 in 10.0 mi SE 13.8 mph 19.6 mph N/A   Clear
3:53 PM 79.0 °F - 39.0 °F 24% 29.88 in 10.0 mi East 5.8 mph 21.9 mph N/A   Clear
4:53 PM 78.1 °F - 39.0 °F 25% 29.88 in 10.0 mi ESE 11.5 mph - N/A   Partly Cloudy
5:53 PM 78.1 °F - 39.0 °F 25% 29.89 in 10.0 mi ESE 12.7 mph - N/A   Clear
6:53 PM 75.9 °F - 37.9 °F 25% 29.87 in 10.0 mi ESE 12.7 mph - N/A   Clear
7:53 PM 75.0 °F - 39.0 °F 27% 29.90 in 10.0 mi ESE 8.1 mph - N/A   Mostly Cloudy
8:53 PM 72.0 °F - 39.0 °F 30% 29.91 in 10.0 mi ESE 6.9 mph - N/A   Mostly Cloudy
9:53 PM 71.1 °F - 39.9 °F 32% 29.92 in 10.0 mi SE 5.8 mph - N/A   Mostly Cloudy
10:53 PM 68.0 °F - 39.9 °F 36% 29.94 in 10.0 mi West 5.8 mph - N/A   Overcast
11:53 PM 66.9 °F - 41.0 °F 39% 29.93 in 10.0 mi WNW 8.1 mph - N/A   Mostly Cloudy